Other Public Products
Issued by NWS Charleston, SC

Home | Current Version | Previous Version | Text Only | Print | Product List | Glossary On
Versions: 1 2 3 4 5 6 7 8 9 10 11 12 13 14 15 16 17 18 19 20 21 22 23 24 25 26 27 28 29 30 31 32 33 34 35 36 37 38 39 40 41 42 43 44 45 46 47 48 49 50
000
FPUS82 KCHS 260428
OPUCHS

TEST...KCHS/KSAV Gateway Observations...TEST
National Weather Service Charleston SC
1100 PM EST SUN FEB 25 2018

NOTE: "fair" indicates few or no clouds below 12,000 feet with no
significant weather and/or obstructions to visibility.

SCZ050-WAZ558-NCZ071-TXZ119-213-PAZ071-DCZ001-FLZ074-172-MI076-
NYZ176-178-MAZ016-IL014-TNZ027-NJZ106-GAZ044-MD014-260500-

...Gateway Observations for Charleston International...

CITY           SKY/WX    TMP DP  RH WIND       PRES   REMARKS
Chas Airport   CLOUDY    66  64  93 SW3       30.15F
Seattle        MOCLDY    37  29  72 S12       29.86R WCI  29
Charlotte      CLOUDY    63  58  83 S7        30.11S
Dallas DFW     CLEAR     54  47  77 SE9       30.05R
Dallas Love    CLEAR     53  47  79 SE8       30.06R
Philladelphia  CLOUDY    46  45  96 CALM      30.04S FOG
Wash National  CLOUDY    51  51 100 S3        30.04R
Baltimore      FOG       46  46 100 SE3       30.02R VSB 1/4
Miami          FAIR      75  69  81 E8        30.17S
Detroit        FAIR      37  27  67 SW10      30.06R WCI  30
Newark         CLOUDY    43  41  93 W5        30.03S
Laguardia      CLOUDY    43  40  89 CALM      30.02S
J F K          CLOUDY    44  42  93 W7        30.05R
Boston Logan   CLOUDY    41  40  96 N8        29.99S FOG
Ft. Lauderdale FAIR      76  71  85 SE14      30.16S
Chicago O`Hare FAIR      39  24  55 W7        30.07R WCI  34
Chicago Midway FAIR      39  27  62 SW9       30.09R WCI  33
Houston Bush   CLOUDY    60  59  96 N7        30.05R
Houston Hobby  CLOUDY    62  61  96 NE5       30.03R
Nashville      CLOUDY    51  44  77 NE5       30.16S
Atlanta        CLOUDY    61  57  87 NW8       30.17F

$$

GAZ044-118-TXZ119-213-NCZ071-DCZ001-MDZ014-506-PAZ021-071-NJZ106-
NYZ176-178-MAZ106-OHZ011-021-055-MIZ076-KYZ091-ILZ014-INZ047-
MNZ060-ONZ431-260500-

...Gateway Observations for Savannah International...

CITY           SKY/WX    TMP DP  RH WIND       PRES   REMARKS
Savannah Arpt  MOCLDY    66  58  75 CALM      30.16S
Atlanta        CLOUDY    61  57  87 NW8       30.17F
Charlotte      CLOUDY    63  58  83 S7        30.11S
Dallas DFW     CLEAR     54  47  77 SE9       30.05R
Houston Bush   CLOUDY    60  59  96 N7        30.05R
Wash National  CLOUDY    51  51 100 S3        30.04R
Wash Dulles    CLOUDY    48  48 100 CALM      30.05R FOG
Baltimore      FOG       46  46 100 SE3       30.02R VSB 1/4
Philadelphia   CLOUDY    46  45  96 CALM      30.04S FOG
Newark         CLOUDY    43  41  93 W5        30.03S
Laguardia      CLOUDY    43  40  89 CALM      30.02S
J F K          CLOUDY    44  42  93 W7        30.05R
Boston         CLOUDY    41  40  96 N8        29.99S FOG
Pittsburg      MOCLDY    43  34  70 W3        30.09R
Akron          CLOUDY    40  31  70 W10       30.10R WCI  33
Cleveland      MOCLDY    39  30  70 W14       30.12R WCI  31
Cincinnati     CLOUDY    42  33  70 W3        30.15R
Columbus       FAIR      41  34  76 W6        30.15R
Detroit        FAIR      37  27  67 SW10      30.06R WCI  30
Chicago O`Hare FAIR      39  24  55 W7        30.07R WCI  34
Minneapolis    FAIR      23  18  81 SW7       29.97R WCI  15
Indianapolis   MOCLDY    38  29  70 W6        30.16R WCI  33
Toronto Canada CLEAR     37  27  65 W16       29.96R WCI  28

$$




USA.gov is the U.S. government's official web portal to all federal, state and local government web resources and services.